Tracking 19795 objects as of 17-Jul-2019
HD Live streaming from Space Station
objects crossing your sky now

COSMOS 1275 DEB

Track COSMOS 1275 DEB now!
10-day predictions


NORAD ID: 42145
Int'l Code: 1981-053RH
Perigee: 741.4 km
Apogee: 790.7 km
Inclination: 83.4 °
Period: 100.0 minutes
Semi major axis: 7137 km
RCS: Unknown
Launch date: June 4, 1981
Source: Commonwealth of Independent States (former USSR) (CIS)
Launch site: PLESETSK MISSILE AND SPACE COMPLEX (PKMTR)

Note: This is SATELLITE DEBRIS
aabbcc
Your satellite tracking list
Your tracking list is empty




NASA's NSSDC Master Catalog

Two Line Element Set (TLE):
1 42145U 81053RH  19188.82631338  .00000665  00000-0  20466-3 0  9992
2 42145  83.3701 327.8532 0034547 212.8253 147.0794 14.39874872295074
Source of the keplerian elements: AFSPC